Zurück zum Katalog

STARLINK-31056

AktivKommunikationVLEO
NORAD 58550·PAYLOAD·🇺🇸 United States

Gestartet Dec 8, 2023 von Vandenberg Space Force Base

Loading…

Nächste Überflüge (nächste 24 Stunden)

TLE

AktuellSource: CelesTrak SupGP

Epoche: Sep 14, 2026, 14:11 UTC

1 58550C 23192V   26257.59145833 -.00005861  00000+0 -17320-3 0  2574
2 58550  53.1561 263.2915 0001166  86.4513 345.8934 15.34386706    15

Verfolge STARLINK-31056 in Echtzeit mit AllMySat

Download on the App Store